Zurück zum Katalog

STARLINK-35682

AktivKommunikationVLEO
NORAD 66467·PAYLOAD·🇺🇸 United States

Gestartet Nov 15, 2025 von Cape Canaveral Space Force Station

Loading…

Nächste Überflüge (nächste 24 Stunden)

TLE

AktuellSource: CelesTrak SupGP

Epoche: Sep 14, 2026, 21:25 UTC

1 66467C 25262M   26257.89284722 -.00016241  00000+0 -58818-3 0  2575
2 66467  43.0035 308.0929 0001945 276.7157 221.3685 15.27590153    17

Verfolge STARLINK-35682 in Echtzeit mit AllMySat

Download on the App Store